Regional Weather Roundup
Issued by NWS

Home | Current Version | Previous Version | Graphics & Text | Print | Product List | Glossary On
Versions: 1 2 3 4 5 6 7 8 9 10 11 12 13 14 15 16 17 18 19 20 21 22 23 24 25 26 27 28 29 30 31 32 33 34 35 36 37 38 39 40 41 42 43 44 45 46 47 48 49 50
000
ASUS43 KDMX 261607
RWRIA

WEATHER ROUNDUP FOR IOWA
NATIONAL WEATHER SERVICE DES MOINES IA
1000 AM CST WED NOV 26 2014

NOTE: "FAIR" INDICATES FEW OR NO CLOUDS BELOW 12,000 FEET WITH NO
SIGNIFICANT WEATHER AND/OR OBSTRUCTIONS TO VISIBILITY.

* - THESE STATIONS ARE NOT NWS STATIONS...THUS NOT UNDER NWS
QUALITY CONTROL.  THEY ALSO DO NOT REPORT WEATHER SUCH
AS PRECIPITATION OR FOG.

IAZ001>003-012>014-020>022-031>034-043>046-261700-
   NORTHWEST IOWA

CITY           SKY/WX    TMP DP  RH WIND       PRES   REMARKS
CARROLL *      CLOUDY    28  27  93 NE13      29.97R WCI  18
CHEROKEE *     LGT SNOW  28  27  93 N17G23    30.04R WCI  16
DENISON *      MIX PCPN  30  30 100 N14G21    29.97R WCI  20
LE MARS *      CLOUDY    27  23  86 N18G26    30.10R WCI  13
ORANGE CITY *  PTSUNNY   27  21  80 N14G24    30.08R HAZE    WCI  15
SHELDON *      MIX PCPN  25  23  93 N24       30.07R WCI   9
SIOUX CITY     CLOUDY    30  25  81 N25       30.09R WCI  16
SPENCER        LGT SNOW  27  23  85 N18       30.05R VSB 1   WCI  14
STORM LAKE *   LGT RAIN  27  25  93 N20       30.00R WCI  13
$$

IAZ055>058-069>071-079>083-090>094-261700-
   SOUTHWEST IOWA

CITY           SKY/WX    TMP DP  RH WIND       PRES   REMARKS
ATLANTIC *     CLOUDY    32  32 100 N12       29.93R WCI  23
AUDUBON *      CLOUDY    28  25  86 N9        29.95R HAZE    WCI  20
CLARINDA *     LGT RAIN  36  34  93 NW15G22   29.95R WCI  26
COUNCIL BLFS * CLOUDY    34  34 100 NW22G31   29.96R WCI  22
CRESTON *      CLOUDY    34  34 100 NW14G20   29.88R WCI  24
HARLAN  *      CLOUDY    32  32 100 N10G17    29.99R WCI  24
LAMONI         CLOUDY    35  32  88 W13       29.87R WCI  26
RED OAK *      FLURRIES  36  34  93 NW16G24   29.95R WCI  26
SHENANDOAH *   LGT RAIN  37  34  87 NW14G24   29.97R WCI  29
$$

IAZ047>049-059>061-072>074-084-261700-
   CENTRAL IOWA

CITY           SKY/WX    TMP DP  RH WIND       PRES   REMARKS
AMES           LGT SNOW  28  25  88 NE7       29.96R VSB 3/4 WCI  21
ANKENY *       CLOUDY    28  27  93 E9        29.94R FOG     WCI  20
CHARITON *     LGT SNOW  32  30  93 E12       29.88R WCI  23
DES MOINES     LGT SNOW  30  26  85 E9        29.93R FOG     WCI  22
GRINNELL*      LGT SNOW  28  27  93 E16       29.95S WCI  17
KNOXVILLE *    LGT SNOW  30  27  86 E9G15     29.90R WCI  22
MARSHALLTOWN   LGT SNOW  26  23  88 E15       29.97R FOG     WCI  14
PELLA *        LGT SNOW  30  28  93 E9        29.94S VSB 1   WCI  22
PERRY *        LGT SNOW  28  28 100 NE9       29.95R WCI  20
$$

IAZ004>006-015-016-023>025-035-036-261700-
   NORTH CENTRAL IOWA

CITY           SKY/WX    TMP DP  RH WIND       PRES   REMARKS
ALGONA *       MIX PCPN  27  25  93 N15       30.04R VSB 1/2 WCI  15
CLARION *      PTSUNNY   27  27 100 E17       29.99R FOG     WCI  14
ESTHERVILLE    LGT SNOW  26  23  88 N17       30.06R FOG     WCI  13
FORT DODGE *   CLOUDY    27  21  80 NE9       30.00R WCI  17
MASON CITY     LGT SNOW  26  22  84 E9        30.04R FOG     WCI  17
FOREST CITY *  LGT SNOW  28  27  93 E7        30.03R VSB 3/4 WCI  21
IOWA FALLS *   LGT SNOW  27  23  86 E13       30.00R WCI  16
$$

IAZ007>011-017>019-026>030-037>042-050>054-066-261700-
   NORTHEAST IOWA

CITY           SKY/WX    TMP DP  RH WIND       PRES   REMARKS
CEDAR RAPIDS   CLOUDY    27  24  89 E9        30.02R WCI  18
CHARLES CITY * MOSUNNY   27  21  80 E13       30.04R WCI  16
CLINTON *      MOSUNNY   25  19  80 E16       30.11S WCI  12
DECORAH *      SUNNY     23  19  86 E8        30.06R WCI  14
DUBUQUE        CLOUDY    22  20  92 E9        30.08R FOG     WCI  12
MONTICELLO *   CLOUDY    27  23  86 E6        30.07R WCI  20
OELWEIN *      CLOUDY    28  23  80 E14       30.04R WCI  17
WATERLOO       CLOUDY    27  22  81 E13       30.02R WCI  16
$$

IAZ064-065-067-068-078-261700-
   EAST CENTRAL IOWA

CITY           SKY/WX    TMP DP  RH WIND       PRES   REMARKS
DAVENPORT      CLOUDY    23  19  85 E15       30.07R WCI  10
IOWA CITY      CLOUDY    27  23  85 E9        30.04R WCI  18
MT. PLEASANT * CLOUDY    30  27  86 SE8       30.00R WCI  23
MUSCATINE *    PTSUNNY   30  25  80 E8        30.05R WCI  23
QUAD CITIES    CLOUDY    25  21  85 E10       30.07R WCI  15
$$

IAZ062-063-075>077-085>089-095>099-261700-
   SOUTHEAST IOWA

CITY           SKY/WX    TMP DP  RH WIND       PRES   REMARKS
BURLINGTON     CLOUDY    31  27  85 E8        30.01R WCI  23
FAIRFIELD *    LGT SNOW  30  27  86 SE14      29.97S WCI  20
FORT MADISON * CLOUDY    34  28  80 SE12      30.00S WCI  25
KEOKUK *       LGT SNOW  32  28  86 SE10      29.98S WCI  24
OSKALOOSA *    LGT SNOW  28  28 100 SE14      29.94S VSB 3/4 WCI  17
CENTERVILLE *  CLOUDY    32  32 100 SE8       29.91R WCI  25
OTTUMWA        LGT SNOW  30  27  88 SE16      29.94R FOG     WCI  19
WASHINGTON *   CLOUDY    30  30 100 E12       30.00R WCI  21
$$

ABBREVIATIONS USED IN REMARKS
   TC - TEMPERATURES IN CELSIUS
  WCI - WIND CHILL INDEX
   HX - HEAT INDEX
  VSB - VISIBILITY
$$



USA.gov is the U.S. government's official web portal to all federal, state and local government web resources and services.